Tracking 23940 objects as of 1-Dec-2021
HD Live streaming from Space Station
objects crossing your sky now

STELLA

Track STELLA now!
10-day predictions
STELLA is classified as:


NORAD ID: 22824
Int'l Code: 1993-061B
Perigee: 802.8 km
Apogee: 812.4 km
Inclination: 99.0 °
Period: 100.9 minutes
Semi major axis: 7178 km
RCS: 0.167 m2 (medium)
Launch date: September 26, 1993
Source: France (FR)
Launch site: FRENCH GUIANA (FRGUI)
aabbcc
Your satellite tracking list
Your tracking list is empty




NASA's NSSDC Master Catalog

Two Line Element Set (TLE):
1 22824U 93061B   21334.83585928 -.00000031  00000-0  66371-5 0  9991
2 22824  98.9756 345.6043 0006674  19.3352 153.4150 14.27386481468040
Source of the keplerian elements: AFSPC